Weather History for Orlando International, FL

Change the Weather History Date:

Friday, May 31, 2013

  Actual Average Record
Temperature  
Mean Temperature 79 °F 80 °F  
Max Temperature 87 °F 90 °F 102 °F (1945)
Min Temperature 71 °F 70 °F 56 °F (1984)
Degree Days  
Heating Degree Days 0 0  
Month to date heating degree days 0 0  
Since 1 July heating degree days 461 571  
Cooling Degree Days 14 15  
Month to date cooling degree days 336 380  
Year to date cooling degree days 872 801  
Growing Degree Days 29 (Base 50)    
Moisture  
Dew Point 70 °F    
Average Humidity 74    
Maximum Humidity 93    
Minimum Humidity 55    
Precipitation  
Precipitation 0.03 in 0.18 in 1.88 in (2001)
Month to date precipitation 5.05 3.45  
Year to date precipitation 10.87 14.63  
Sea Level Pressure  
Sea Level Pressure 30.09 in    
Wind  
Wind Speed 11 mph (East)    
Max Wind Speed 24 mph    
Max Gust Speed 30 mph    
Visibility 10 miles    
Events Rain    
T = Trace of Precipitation, MM = Missing Value Source: NWS Daily Summary

Daily Weather History Graph

Daily Weather History Graph

Search for Another Location

Airport:

Trip Planner

Search our weather history database for the weather conditions in past years. The results will help you decide how hot, cold, wet, or windy it might be!

Date:

Astronomy

May. 31, 2013 Rise Set
Actual Time 6:28 AM EDT 8:17 PM EDT
Civil Twilight 6:01 AM EDT 8:44 PM EDT
Nautical Twilight 5:29 AM EDT 9:16 PM EDT
Astronomical Twilight 4:56 AM EDT 9:50 PM EDT
Moon 1:14 AM EDT (5/31) 1:16 PM EDT (5/31)
Length of Visible Light 14h 42m
Length of Day
13h 49m
Waning Gibbous, 51% of the Moon is Illuminated
May 31
Waning Gibbous
May 31
Last Quarter
Jun 8
New
Jun 16
First Quarter
Jun 23
Full

Hourly Weather History & Observations

Time (EDT) Temp. Heat Index Dew Point Humidity Pressure Visibility Wind Dir Wind Speed Gust Speed Precip Events Conditions
12:53 AM 73.0 °F - 68.0 °F 84% 30.13 in 10.0 mi East 6.9 mph - N/A   Scattered Clouds
1:53 AM 72.0 °F - 68.0 °F 87% 30.11 in 10.0 mi ENE 6.9 mph - N/A   Partly Cloudy
2:53 AM 71.1 °F - 68.0 °F 90% 30.09 in 10.0 mi East 6.9 mph - N/A   Partly Cloudy
3:53 AM 72.0 °F - 69.1 °F 91% 30.07 in 10.0 mi East 6.9 mph - N/A   Partly Cloudy
4:53 AM 73.0 °F - 70.0 °F 90% 30.07 in 10.0 mi East 6.9 mph - N/A   Partly Cloudy
5:53 AM 72.0 °F - 69.1 °F 91% 30.09 in 10.0 mi ENE 4.6 mph - N/A   Scattered Clouds
6:53 AM 72.0 °F - 69.1 °F 91% 30.09 in 10.0 mi East 6.9 mph - N/A   Scattered Clouds
7:53 AM 75.0 °F - 71.1 °F 87% 30.09 in 10.0 mi East 9.2 mph - N/A   Scattered Clouds
8:53 AM 77.0 °F - 71.1 °F 82% 30.11 in 10.0 mi East 8.1 mph - N/A   Scattered Clouds
9:53 AM 82.0 °F 85.9 °F 70.0 °F 67% 30.10 in 10.0 mi East 15.0 mph 21.9 mph N/A   Scattered Clouds
10:53 AM 80.1 °F 83.6 °F 71.1 °F 74% 30.12 in 8.0 mi East 10.4 mph - 0.00 in Rain Light Rain
11:53 AM 81.0 °F 85.2 °F 72.0 °F 74% 30.12 in 10.0 mi East 17.3 mph - 0.03 in   Mostly Cloudy
12:53 PM 84.0 °F 89.6 °F 72.0 °F 67% 30.11 in 10.0 mi East 17.3 mph 26.5 mph N/A   Mostly Cloudy
1:53 PM 84.9 °F 90.7 °F 72.0 °F 65% 30.10 in 10.0 mi East 18.4 mph 28.8 mph N/A   Mostly Cloudy
2:53 PM 86.0 °F 90.7 °F 70.0 °F 59% 30.08 in 10.0 mi ESE 21.9 mph 27.6 mph N/A   Mostly Cloudy
3:53 PM 87.1 °F 91.3 °F 69.1 °F 55% 30.07 in 10.0 mi ESE 18.4 mph 24.2 mph N/A   Mostly Cloudy
4:53 PM 84.9 °F 88.8 °F 69.1 °F 59% 30.06 in 10.0 mi East 17.3 mph 24.2 mph N/A   Mostly Cloudy
5:53 PM 82.9 °F 86.5 °F 69.1 °F 63% 30.05 in 10.0 mi East 17.3 mph - N/A   Scattered Clouds
6:53 PM 82.0 °F 85.5 °F 69.1 °F 65% 30.06 in 10.0 mi East 17.3 mph - N/A   Mostly Cloudy
7:53 PM 79.0 °F - 68.0 °F 69% 30.08 in 10.0 mi East 11.5 mph - 0.00 in   Scattered Clouds
8:53 PM 77.0 °F - 69.1 °F 76% 30.09 in 10.0 mi East 10.4 mph - N/A   Partly Cloudy
9:53 PM 75.9 °F - 70.0 °F 82% 30.10 in 10.0 mi East 6.9 mph - N/A   Partly Cloudy
10:53 PM 75.0 °F - 70.0 °F 84% 30.10 in 10.0 mi East 5.8 mph - N/A   Scattered Clouds
11:53 PM 75.0 °F - 71.1 °F 87% 30.09 in 10.0 mi East 6.9 mph - N/A   Scattered Clouds